CW1675 Weather Reports


time (UTC)temp
F
wind
direction
speed
knots
gust
knots
rain 1hr
in
rain 24hr
in
rain mn
in
humidity
%
barometer
mb
20260503020833 53 46 0.0 0.0 0.00 0.49 0.00 97 1013.6
20260503015333 54 0 0.0 0.0 0.00 0.49 0.00 98 1013.7
20260503014334 54 357 0.0 1.7 0.00 0.49 0.00 98 1013.7
20260503012334 54 353 0.0 0.0 0.00 0.49 0.00 98 1013.9
20260503005835 55 353 0.0 0.0 0.00 0.49 0.00 98 1014.0
20260503005333 55 352 0.0 0.0 0.00 0.49 0.00 98 1014.0
20260503003834 55 354 0.0 1.7 0.00 0.49 0.00 98 1014.1
20260503002836 55 343 0.0 0.0 0.00 0.49 0.00 98 1014.1
20260503001833 54 341 0.0 1.7 0.00 0.49 0.00 98 1014.3
20260503001334 54 312 0.0 0.9 0.00 0.49 0.00 98 1014.3
20260502235835 54 312 0.0 0.0 0.00 0.49 0.00 97 1014.5
20260502235333 54 312 0.0 0.0 0.00 0.49 0.00 97 1014.5
20260502234333 54 312 0.0 0.0 0.00 0.49 0.00 98 1014.5
20260502232843 54 311 0.0 0.0 0.00 0.49 0.00 98 1014.6
20260502231837 54 311 0.0 1.7 0.00 0.49 0.00 97 1014.7
20260502231334 54 311 0.0 1.7 0.00 0.49 0.00 97 1014.7
20260502230833 54 311 0.0 0.0 0.00 0.49 0.00 97 1014.8
20260502230334 55 311 0.0 1.7 0.00 0.49 0.00 98 1014.8
20260502224833 55 311 0.0 2.6 0.00 0.49 0.00 97 1014.9
20260502224333 54 309 0.0 0.0 0.00 0.49 0.00 97 1014.9
20260502223833 54 309 0.0 0.9 0.00 0.49 0.00 97 1014.9
20260502222834 55 79 0.0 1.7 0.00 0.49 0.00 97 1014.9
20260502222333 55 77 0.0 0.0 0.00 0.49 0.00 97 1015.0
20260502221833 55 77 0.0 0.0 0.00 0.49 0.00 97 1015.0
20260502221333 55 77 0.0 0.0 0.00 0.49 0.00 97 1015.0
20260502220833 55 77 0.9 1.7 0.00 0.49 0.00 97 1015.1
20260502215836 56 77 1.7 1.7 0.00 0.49 0.00 97 1015.1
20260502214334 56 79 1.7 4.3 0.00 0.49 0.49 97 1015.2
20260502213833 56 59 1.7 4.3 0.00 0.49 0.49 97 1015.3
20260502213334 56 76 1.7 2.6 0.00 0.49 0.49 97 1015.3
20260502212835 56 68 1.7 2.6 0.00 0.49 0.49 97 1015.3
20260502212334 57 52 1.7 4.3 0.00 0.49 0.49 97 1015.3
20260502210833 57 85 0.9 1.7 0.00 0.49 0.49 97 1015.3
20260502204833 57 69 0.0 0.0 0.00 0.49 0.49 97 1015.4
20260502204333 57 69 0.0 0.0 0.00 0.49 0.49 97 1015.4
20260502203333 57 69 0.0 0.0 0.00 0.49 0.49 97 1015.5
20260502202333 57 70 0.0 1.7 0.00 0.49 0.49 97 1015.6
20260502200333 58 70 0.0 2.6 0.00 0.49 0.49 96 1015.6
20260502195834 58 187 0.9 1.7 0.00 0.49 0.49 96 1015.6
20260502195332 58 187 0.9 0.9 0.00 0.49 0.49 96 1015.7
20260502192334 59 274 0.0 0.0 0.00 0.49 0.49 96 1015.7
20260502191833 59 274 1.7 0.9 0.00 0.49 0.49 96 1015.7
20260502190333 59 34 0.0 0.0 0.00 0.49 0.49 96 1015.7
20260502185333 59 35 0.0 2.6 0.00 0.49 0.49 96 1015.8
20260502183833 59 85 0.0 2.6 0.02 0.49 0.49 95 1016.0
20260502182333 60 314 0.0 0.0 0.02 0.49 0.49 95 1016.0
20260502181334 60 314 0.0 0.0 0.02 0.49 0.49 95 1016.0
20260502180333 60 353 0.0 1.7 0.02 0.49 0.49 95 1015.8
20260502170333 60 91 0.9 1.7 0.41 0.47 0.47 90 1016.1
20260502164333 63 10 7.0 26.1 0.39 0.43 0.43 80 1017.9
20260502163333 69 154 0.0 5.2 0.04 0.08 0.08 82 1015.4
20260502162836 69 93 1.7 1.7 0.04 0.08 0.08 82 1015.4
20260502161333 71 95 1.7 5.2 0.04 0.08 0.08 75 1015.9
20260502160833 72 60 1.7 7.8 0.04 0.08 0.08 68 1016.1
20260502152333 74 10 2.6 4.3 0.00 0.04 0.04 50 1016.6
20260502151334 74 322 4.3 6.1 0.00 0.04 0.04 52 1016.6
20260502150833 74 292 2.6 10.4 0.00 0.04 0.04 52 1016.6
20260502150332 74 239 1.7 12.2 0.00 0.04 0.04 56 1016.6
20260502115834 68 62 0.9 2.6 0.04 0.04 0.04 82 1018.9
20260502115333 68 62 0.9 4.3 0.04 0.04 0.04 82 1019.1
20260502114832 68 64 1.7 4.3 0.04 0.04 0.04 82 1019.1
20260502113833 68 194 2.6 4.3 0.04 0.04 0.04 77 1019.3
20260502113333 68 254 2.6 5.2 0.04 0.04 0.04 72 1019.3
20260502112834 69 277 4.3 5.2 0.04 0.04 0.04 72 1019.3
20260502112333 70 293 5.2 6.1 0.04 0.04 0.04 66 1019.2
20260502111834 72 284 4.3 8.7 0.03 0.03 0.03 61 1019.2
20260502111333 73 268 4.3 14.8 0.02 0.02 0.02 58 1019.2
20260502110832 74 275 2.6 7.8 0.00 0.00 0.00 50 1019.1
20260502110334 74 295 2.6 5.2 0.00 0.00 0.00 48 1019.1
20260502105834 74 227 3.5 6.1 0.00 0.00 0.00 49 1019.1
20260502105333 74 256 4.3 5.2 0.00 0.00 0.00 48 1019.4
20260502104833 74 186 5.2 7.0 0.00 0.00 0.00 51 1019.4
20260502103333 73 175 7.0 11.3 0.00 0.00 0.00 50 1019.7
20260502102333 73 193 5.2 13.9 0.00 0.00 0.00 51 1019.9
20260502100833 72 192 5.2 11.3 0.00 0.00 0.00 51 1020.0
20260502091333 70 243 6.1 7.8 0.00 0.00 0.00 56 1020.3
20260502090832 69 201 5.2 8.7 0.00 0.00 0.00 57 1020.3
20260502090332 69 219 5.2 10.4 0.00 0.00 0.00 55 1020.3
20260502071333 65 242 4.3 7.0 0.00 0.00 0.00 56 1020.5
20260502065332 65 154 4.3 7.0 0.00 0.00 0.00 55 1020.8
20260502064832 65 177 4.3 7.0 0.00 0.00 0.00 55 1020.8
20260502064333 65 165 4.3 7.8 0.00 0.00 0.00 55 1020.8
20260502063333 64 168 4.3 6.1 0.00 0.00 0.00 54 1020.9
20260502061832 63 183 4.3 7.0 0.00 0.00 0.00 54 1021.0
20260502054832 62 164 2.6 7.0 0.00 0.00 0.00 54 1020.9
20260502054333 62 195 2.6 6.1 0.00 0.00 0.00 52 1020.9
20260502051832 61 184 4.3 7.8 0.00 0.00 0.00 46 1020.9
20260502051333 61 189 4.3 6.1 0.00 0.00 0.00 46 1020.9
20260502050833 61 171 2.6 5.2 0.00 0.00 0.00 46 1020.8
20260502044333 60 188 2.6 6.1 0.00 0.00 0.00 48 1020.8
20260502043833 60 185 3.5 7.0 0.00 0.00 0.00 48 1020.6
20260502035332 60 169 4.3 7.0 0.00 0.00 0.00 45 1021.0
20260502033839 55 198 1.7 7.8 0.00 0.00 0.00 60 1020.7
20260502032834 48 252 0.9 4.3 0.00 0.00 0.00 80 1020.7
20260502032332 47 24 0.0 2.6 0.00 0.00 0.00 81 1020.7
20260502031832 47 339 0.0 1.7 0.00 0.00 0.00 81 1020.7
20260502031332 46 339 0.0 1.7 0.00 0.00 0.00 81 1020.7
20260502025332 45 339 0.0 0.0 0.00 0.00 0.00 83 1021.0
20260502024333 45 340 0.9 1.7 0.00 0.00 0.00 85 1021.0
20260502022332 43 346 0.0 1.7 0.00 0.00 0.00 85 1021.1